When you browse on this site, cookies collect data to enhance your experience and personalize the content and advertising you see.
Visit our Privacy Policy to learn more. By continuing to use the site, you agree to this use of cookies and data.
  • In Portugal
  • List of Countries
  • For 7 days
  • Water Temperature
  • Weather Map
  • Weather Widgets
  • user-avatar
    Login

    Hourly Weather Yalga

    Today, 17 September, Tuesday

    Time Temperature Precipitation Wind Pressure Humidity
    00:00 +8°C° 0 mm 5 mps 736 mmHg 93%
    01:00 +8°C° 0 mm 5 mps 736 mmHg 93%
    02:00 +8°C° 0 mm 5 mps 736 mmHg 94%
    03:00 +7°C° 0 mm 5 mps 736 mmHg 94%
    04:00 +8°C° 0 mm 5 mps 736 mmHg 95%
    05:00 +8°C° 0 mm 5 mps 736 mmHg 95%
    06:00 +8°C° 0 mm 5 mps 736 mmHg 95%
    07:00 +9°C° 0 mm 6 mps 736 mmHg 91%
    08:00 +9°C° 0 mm 6 mps 736 mmHg 86%
    09:00 +10°C° 0 mm 7 mps 736 mmHg 82%
    10:00 +11°C° 0.2 mm 7 mps 735 mmHg 79%
    11:00 +12°C° 0.2 mm 7 mps 735 mmHg 75%
    12:00 +12°C° 0.2 mm 7 mps 735 mmHg 71%
    13:00 +14°C° 0.2 mm 7 mps 735 mmHg 68%
    14:00 +14°C° 0.2 mm 7 mps 735 mmHg 65%
    15:00 +14°C° 0.2 mm 7 mps 735 mmHg 62%
    16:00 +13°C° 0.1 mm 6 mps 735 mmHg 65%
    17:00 +12°C° 0.1 mm 5 mps 735 mmHg 68%
    18:00 +11°C° 0.1 mm 4 mps 735 mmHg 71%
    19:00 +10°C° 0 mm 4 mps 735 mmHg 73%
    20:00 +8°C° 0 mm 4 mps 736 mmHg 76%
    21:00 +7°C° 0 mm 4 mps 736 mmHg 78%
    22:00 +8°C° 0 mm 3 mps 736 mmHg 80%
    23:00 +7°C° 0 mm 3 mps 736 mmHg 82%

    Tomorrow, 18 September, Wednesday

    Time Temperature Precipitation Wind Pressure Humidity
    00:00 +7°C° 0 mm 3 mps 736 mmHg 84%
    01:00 +7°C° 0 mm 3 mps 736 mmHg 85%
    02:00 +5°C° 0 mm 3 mps 736 mmHg 86%
    03:00 +5°C° 0 mm 3 mps 736 mmHg 87%
    04:00 +5°C° 0 mm 3 mps 736 mmHg 87%
    05:00 +5°C° 0 mm 3 mps 736 mmHg 86%
    06:00 +5°C° 0 mm 3 mps 736 mmHg 86%
    07:00 +7°C° 0 mm 4 mps 736 mmHg 80%
    08:00 +8°C° 0 mm 5 mps 736 mmHg 75%
    09:00 +10°C° 0 mm 5 mps 736 mmHg 69%
    10:00 +10°C° 0.3 mm 6 mps 736 mmHg 66%
    11:00 +11°C° 0.3 mm 6 mps 736 mmHg 63%
    12:00 +12°C° 0.3 mm 7 mps 736 mmHg 61%
    13:00 +13°C° 0.1 mm 6 mps 736 mmHg 59%
    14:00 +13°C° 0.1 mm 5 mps 735 mmHg 56%
    15:00 +14°C° 0.1 mm 4 mps 735 mmHg 54%
    16:00 +13°C° 0.1 mm 4 mps 735 mmHg 62%
    17:00 +12°C° 0.1 mm 3 mps 734 mmHg 69%
    18:00 +10°C° 0.1 mm 2 mps 734 mmHg 76%
    19:00 +10°C° 0.1 mm 2 mps 733 mmHg 79%
    20:00 +9°C° 0.1 mm 2 mps 733 mmHg 82%
    21:00 +10°C° 0.1 mm 1 mps 732 mmHg 86%
    22:00 +10°C° 0.1 mm 1 mps 731 mmHg 87%
    23:00 +10°C° 0.1 mm 1 mps 731 mmHg 88%

    Day after tomorrow, 19 September, Thursday

    Time Temperature Precipitation Wind Pressure Humidity
    00:00 +10°C° 0.1 mm 1 mps 730 mmHg 90%
    01:00 +8°C° 0.4 mm 2 mps 730 mmHg 90%
    02:00 +8°C° 0.4 mm 3 mps 730 mmHg 91%
    03:00 +7°C° 0.4 mm 4 mps 730 mmHg 91%
    04:00 +7°C° 0.1 mm 5 mps 731 mmHg 90%
    05:00 +7°C° 0.1 mm 5 mps 731 mmHg 89%
    06:00 +7°C° 0.1 mm 5 mps 732 mmHg 88%
    07:00 +7°C° 0 mm 5 mps 733 mmHg 87%
    08:00 +7°C° 0 mm 6 mps 735 mmHg 85%
    09:00 +8°C° 0 mm 6 mps 736 mmHg 84%
    10:00 +8°C° 0.1 mm 6 mps 737 mmHg 80%
    11:00 +9°C° 0.1 mm 6 mps 738 mmHg 77%
    12:00 +10°C° 0.1 mm 7 mps 739 mmHg 74%
    13:00 +9°C° 0.1 mm 6 mps 739 mmHg 76%
    14:00 +9°C° 0.1 mm 6 mps 740 mmHg 78%
    15:00 +8°C° 0.1 mm 6 mps 741 mmHg 79%
    16:00 +8°C° 0 mm 5 mps 741 mmHg 82%
    17:00 +7°C° 0 mm 4 mps 742 mmHg 84%
    18:00 +8°C° 0 mm 3 mps 742 mmHg 86%
    19:00 +7°C° 0 mm 3 mps 743 mmHg 88%
    20:00 +7°C° 0 mm 3 mps 743 mmHg 90%
    21:00 +5°C° 0 mm 3 mps 744 mmHg 92%
    22:00 +5°C° 0.1 mm 3 mps 744 mmHg 92%
    23:00 +5°C° 0.1 mm 3 mps 744 mmHg 92%

    20 September, Friday

    Time Temperature Precipitation Wind Pressure Humidity
    00:00 +5°C° 0.1 mm 3 mps 744 mmHg 92%
    01:00 +5°C° 0 mm 3 mps 744 mmHg 93%
    02:00 +4°C° 0 mm 3 mps 745 mmHg 94%
    03:00 +5°C° 0 mm 2 mps 745 mmHg 95%
    04:00 +4°C° 0 mm 2 mps 745 mmHg 95%
    05:00 +4°C° 0 mm 2 mps 745 mmHg 95%
    06:00 +4°C° 0 mm 2 mps 745 mmHg 95%
    07:00 +5°C° 0 mm 2 mps 745 mmHg 89%
    08:00 +6°C° 0 mm 2 mps 745 mmHg 84%
    09:00 +7°C° 0 mm 2 mps 745 mmHg 79%
    10:00 +8°C° 0 mm 2 mps 745 mmHg 74%
    11:00 +9°C° 0 mm 3 mps 745 mmHg 69%
    12:00 +10°C° 0 mm 3 mps 745 mmHg 64%
    13:00 +10°C° 0.1 mm 3 mps 745 mmHg 68%
    14:00 +9°C° 0.1 mm 3 mps 745 mmHg 72%
    15:00 +9°C° 0.1 mm 3 mps 745 mmHg 76%
    16:00 +8°C° 0 mm 2 mps 745 mmHg 79%
    17:00 +8°C° 0 mm 2 mps 745 mmHg 81%
    18:00 +8°C° 0 mm 1 mps 745 mmHg 84%
    19:00 +7°C° 0 mm 1 mps 745 mmHg 86%
    20:00 +6°C° 0 mm 2 mps 746 mmHg 87%
    21:00 +6°C° 0 mm 2 mps 746 mmHg 89%
    22:00 +5°C° 0 mm 2 mps 746 mmHg 90%
    23:00 +5°C° 0 mm 2 mps 746 mmHg 90%

    21 September, Saturday

    Time Temperature Precipitation Wind Pressure Humidity
    00:00 +5°C° 0 mm 1 mps 746 mmHg 91%
    01:00 +4°C° 0 mm 2 mps 746 mmHg 92%
    02:00 +3°C° 0 mm 2 mps 746 mmHg 92%
    03:00 +3°C° 0 mm 2 mps 746 mmHg 93%
    04:00 +2°C° 0 mm 2 mps 746 mmHg 94%
    05:00 +2°C° 0 mm 2 mps 746 mmHg 95%
    06:00 +1°C° 0 mm 2 mps 746 mmHg 96%
    07:00 +3°C° 0 mm 2 mps 746 mmHg 89%
    08:00 +3°C° 0 mm 3 mps 746 mmHg 83%
    09:00 +5°C° 0 mm 3 mps 747 mmHg 76%
    10:00 +7°C° 0 mm 3 mps 747 mmHg 71%
    11:00 +8°C° 0 mm 3 mps 747 mmHg 65%
    12:00 +9°C° 0 mm 3 mps 747 mmHg 60%
    13:00 +9°C° 0.1 mm 3 mps 746 mmHg 58%
    14:00 +9°C° 0.1 mm 3 mps 746 mmHg 56%
    15:00 +9°C° 0.1 mm 3 mps 746 mmHg 54%
    16:00 +8°C° 0.2 mm 3 mps 746 mmHg 60%
    17:00 +7°C° 0.2 mm 3 mps 746 mmHg 66%
    18:00 +5°C° 0.2 mm 3 mps 746 mmHg 73%
    19:00 +5°C° 0.1 mm 3 mps 747 mmHg 78%
    20:00 +4°C° 0.1 mm 3 mps 747 mmHg 84%
    21:00 +4°C° 0.1 mm 4 mps 747 mmHg 89%
    22:00 +3°C° 0.5 mm 3 mps 747 mmHg 90%
    23:00 +3°C° 0.5 mm 3 mps 747 mmHg 90%

    22 September, Sunday

    Time Temperature Precipitation Wind Pressure Humidity
    00:00 +3°C° 0.5 mm 3 mps 748 mmHg 91%
    01:00 +3°C° 0.3 mm 3 mps 748 mmHg 90%
    02:00 +3°C° 0.3 mm 3 mps 748 mmHg 89%
    03:00 +2°C° 0.3 mm 3 mps 748 mmHg 88%
    04:00 +2°C° 0 mm 3 mps 748 mmHg 88%
    05:00 +1°C° 0 mm 3 mps 748 mmHg 88%
    06:00 0°C° 0 mm 3 mps 749 mmHg 87%
    07:00 +2°C° 0 mm 3 mps 749 mmHg 83%
    08:00 +3°C° 0 mm 3 mps 749 mmHg 78%
    09:00 +4°C° 0 mm 3 mps 750 mmHg 73%
    10:00 +5°C° 0 mm 3 mps 750 mmHg 67%
    11:00 +8°C° 0 mm 3 mps 750 mmHg 61%
    12:00 +9°C° 0 mm 3 mps 750 mmHg 54%
    13:00 +9°C° 0 mm 3 mps 750 mmHg 53%
    14:00 +9°C° 0 mm 3 mps 750 mmHg 51%
    15:00 +9°C° 0 mm 3 mps 750 mmHg 49%
    16:00 +8°C° 0 mm 3 mps 750 mmHg 53%
    17:00 +7°C° 0 mm 2 mps 750 mmHg 58%
    18:00 +6°C° 0 mm 2 mps 751 mmHg 63%
    19:00 +5°C° 0 mm 2 mps 751 mmHg 66%
    20:00 +5°C° 0 mm 2 mps 751 mmHg 69%
    21:00 +4°C° 0 mm 2 mps 751 mmHg 72%
    22:00 +3°C° 0 mm 3 mps 751 mmHg 72%
    23:00 +2°C° 0 mm 3 mps 751 mmHg 72%
    Show more